Miscellaneous Local Product
Issued by NWS Hastings, NE

Home | Current Version | Previous Version | Graphics & Text | Print | Product List | Glossary On
Versions: 1 2 3 4 5 6 7 8 9 10 11 12 13 14 15 16 17 18 19 20 21 22 23 24 25 26 27 28 29 30 31 32 33 34 35 36 37 38 39 40 41 42 43 44 45 46 47 48 49 50
000
AXUS43 KGID 162102
MISGRI

GID CWA HOURLY WEATHER ROUNDUP
NATIONAL WEATHER SERVICE HASTINGS NE
300 PM CST MON JAN 16 2017

NOTE: "FAIR" INDICATES FEW OR NO CLOUDS BELOW 12,000 FEET WITH NO
SIGNIFICANT WEATHER AND/OR OBSTRUCTIONS TO VISIBILITY.

...SOUTH CENTRAL NEBRASKA...

CITY           SKY/WX    TMP DP  RH WIND       PRES   REMARKS
GRAND ISLAND   FRZ RAIN N/A N/A N/A N9        29.91S FOG
HASTINGS       MIX PCPN  33  31  92 N15       29.90S WCI  23
KEARNEY        CLOUDY    32  28  86 N6        29.91S WCI  26
ORD            FRZ RAIN  32  27  81 N14       29.94S WCI  22
YORK           CLOUDY    32  32 100 CALM      29.89S
AURORA         MIX PCPN  32  32  99 N3        29.90R
LEXINGTON      DRIZZLE   33  31  91 N16G22    29.94R WCI  23
HOLDREGE       DRIZZLE   33  32  97 N5        29.91R WCI  28
HEBRON         CLOUDY    32  32  99 N3        29.88R FOG

...NEBRASKA PANHANDLE...

CITY           SKY/WX    TMP DP  RH WIND       PRES   REMARKS
CHADRON        SUNNY     34  18  52 NW14      30.07F WCI  25
ALLIANCE       CLOUDY    38  15  39 N17       30.02S WCI  28
SCOTTSBLUFF    CLOUDY    41  17  38 NW12      30.04F
SIDNEY         CLOUDY    36  20  52 MISG      30.02S

...WESTERN AND NORTH CENTRAL NEBRASKA...

CITY           SKY/WX    TMP DP  RH WIND       PRES   REMARKS
VALENTINE      CLOUDY    33  13  43 NW17      30.02S WCI  22
AINSWORTH      CLOUDY    35  25  67 NW12      29.99S WCI  27
ONEILL         CLOUDY    31  28  88 N10       29.98F WCI  22
BROKEN BOW     MIX PCPN  33  29  85 N18       29.94S WCI  22
IMPERIAL       CLOUDY    35  28  75 N16       29.98R WCI  25
NORTH PLATTE   CLOUDY    36  30  79 N8        29.98R WCI  30
MCCOOK         LGT SNOW  34  33  96 N14       29.95R FOG     WCI  25

...EASTERN NEBRASKA...

CITY           SKY/WX    TMP DP  RH WIND       PRES   REMARKS
NORFOLK        FRZ RAIN  31  29  92 N15       29.92S FOG     WCI  20
SO SIOUX CITY  LGT RAIN  34  32  92 N8        29.94F FOG     WCI  27
TEKAMAH        LGT RAIN  33  31  92 N12       29.91S FOG     WCI  24
COLUMBUS       CLOUDY    32  28  86 CALM      29.91S
ALBION         LGT SNOW  32  30  93 N8        29.92S WCI  25
OMAHA EPPLEY   LGT RAIN  35  31  85 N12       29.89S FOG     WCI  27
MILLARD        DRIZZLE   36  34  94 N3        29.89S
LINCOLN        CLOUDY    33  32  96 N10       29.89S WCI  25
NEBRASKA CITY  FOG       33  33 100 N6        29.85R VSB 1/4 WCI  28
BEATRICE       CLOUDY    33  33  99 N5        29.86R FOG     WCI  29
FALLS CITY     FOG       37  36  96 N5        29.82S VSB 1/4 WCI  33

...NORTHERN KANSAS...

CITY           SKY/WX    TMP DP  RH WIND       PRES   REMARKS
GOODLAND       CLOUDY    33  32  96 N23G29    29.94R FOG     WCI  21
HILL CITY      CLOUDY    34  33  96 N13       29.92R WCI  25
NORTON         CLOUDY    34  28  80 NW7       29.91R WCI  28
PHILLIPSBURG   CLOUDY    34  34 100 NW9       29.92R WCI  26
SMITH CENTER   LGT SNOW  30  30 100 N6        29.90R WCI  24
HAYS           CLOUDY    33  31  92 N13       29.90R WCI  24
RUSSELL        CLOUDY    32  32 100 NW10      29.87R FOG     WCI  24
CONCORDIA      CLOUDY    32  32 100 N10       29.85R FOG     WCI  24
SALINA         LGT RAIN  36  34  92 NW9       29.84S FOG     WCI  29
TOPEKA         LGT RAIN  46  42  86 S7        29.82S



USA.gov is the U.S. government's official web portal to all federal, state and local government web resources and services.